星链-32842 (STARLINK-32842)

导读 | 豆包AI

STARLINK-32842是美国SpaceX公司星链(Starlink)星座的组网卫星,于2025年1月24日发射入轨,轨道倾角约94.1度。作为低轨宽带通信卫星,它采用平板设计与氪工质霍尔推进器,搭载Ku/Ka波段通信载荷及激光星间链路,具备自主避撞能力,旨在为全球尤其是偏远地区提供高速宽带互联网服务,设计寿命约5-7年,退役后会主动离轨再入大气层销毁,是SpaceX星链全球组网进程中的一颗量产卫星。

基本信息
目录编号:
62822
目录名称:
STARLINK-32842
国际标识:
2025-018S
轨道中心:
EARTH
卫星名称:
星链-32842
卫星全名:
星链-32842 (STARLINK-32842)
卫星状态:
在轨 (已飞行415 天)
发射日期:
2025-01-24 UTC
国别 :
美国 (US)
星等 :
--
轨道信息
数据来源 国际轨道数据
星历时间: 2026-03-14T22:49:53+0800
10小时前
查看轨道信息
半长轴: 6853.323km
偏心率: 0.0001339
轨道倾角: 53.156°
近地点辐角 86.303°
升交点赤经 286.654°
平近点角 273.813°
近地点: 474.268km
远地点: 476.104km
周期: 94.105分钟
每日圈数: 15.302098
详细信息
固有亮度:
5
最大亮度:
2.5
卫星平台:
Starlink V1.0
覆盖范围:
全球
运营商:
太空探索技术公司
运营商所在国:
美国
制造商(研发单位):
太空探索技术公司
制造商所在国:
美国
使用方式:
暂无
卫星简介
Starlink 计划是 SpaceX 推出的全球卫星互联网项目,通过发射低轨道卫星,为全球尤其是偏远地区提供高速、低延迟的互联网服务。自 2019 年起,Starlink 已部署数千颗卫星,旨在缩小全球数字鸿沟,推动互联网普及。该项目还为军事、航空等行业提供通信支持,带来广泛经济效益。
2D轨道图
3D轨道图
轨道高度分析图
轨道倾角分析图
轨道综合分析图
查看轨道综合分析图